Portada
METAR-TAF:

METAR-TAF

Aeroports :

Price County Airport

Phillips, Wisconsin, Estats Units d'Amèrica

latitud: 45-42N, longitud: 090-24W, altitud: 449 m

Observació

L'informe es va fer fa 27 minuts, a les 03:35 UTC
Vent 7 kt del Sud-Est
Temperatura -5°C
Humitat 100%
Pressió 1013 hPa
Visibilitat: 16.1 km
Cel cobert a una alçada de 800 ft

METAR: KPBH 120335Z AUTO 13007KT 10SM OVC008 M05/M05 A2990 RMK AO2 T10481055

Hora: 22:02 (04:02 UTC)


TAF: manca

Observacions i pronòstics meteorològics de més de 4000 aeroports (METAR i TAF).

Les estacions disponibles són els punts grocs i vermells al mapa.

Posi el ratolí al punt desitjat per veure el nom de l'estació.

Feu clic per veure les observacions i els pronòstics meteorològics.

Per canviar el mapa: feu clic els botons verds amb una creu de color negre per apropar; al botó verd amb un guió per allunyar la imatge; o en les fletxes verdes per a mapes adjacents.


METAR-TAF: